Content
SEND FEEDBACK

Daily
Averages
Monthly
Summary
United States of America

CLENDENIN, WEST VIRGINIA


Home > North America > United States > West Virginia
Elevation: 62 feet     Latitude: 38 29N     Longitude: 081 21W

WEATHER
 
SELECT A DAY
Number of Records: 197,692;   Date Range: 1/1/95 - 9/18/14
 
SHARE

PRINT THIS DATA

[ ← Previous Day ]
WEATHER ALMANAC - JANUARY 31, 2013
[ Next Day → ]
[ °C ]   °F
Weather ElementAverageHighLow
Temperature31.2 °F37.9 °F (1:54 am)28.4 °F (10:02 am)
Dewpoint22.5 °F33.8 °F (1:35 am)17.6 °F (2:20 pm)
Humidity70.5 %89 % (11:54 pm)55 % (2:20 pm)
Barometer29.84 in29.96 in (5:54 pm)29.54 in (1:35 am)
Wind Speed12.7 mph21.9 mph (1:32 pm)
Wind Gust36.8 mph (2:54 am)
Weather ElementAverage
Visibility6.9 mi
Wind DirectionWSW (258.3 °)

Weather ElementTotal
Precipitation0.16 in
Heating Degree Days31.9 (Base 65)
Averaged from 35 records on January 31, 2013
WEATHER CONDITIONS BREAKOUT
WIND DIRECTION BREAKOUT
WEATHER BY HOUR - JANUARY 31, 2013
[ °C ]   °F
Local TimeTemperatureDewpointHumidityBarometerVisibilityWind DirectionWind SpeedGust SpeedPrecipitationEventsConditions
1:35 AM37.4 °F33.8 °F87 %29.54 in8.0 miWest (270°)16.1 mph32.2 mph0.07 inRainLight Rain
1:54 AM37.9 °F30.9 °F76 %29.55 in10.0 miWest (270°)13.8 mph26.5 mph0.07 inRainLight Rain
2:42 AM37.4 °F26.6 °F65 %29.60 in10.0 miWest (280°)13.8 mph33.4 mph0.00 inOvercast
2:54 AM36.0 °F26.1 °F67 %29.62 in5.0 miWNW (300°)18.4 mph36.8 mph0.00 inRain-SnowLight Rain
3:54 AM34.0 °F25.0 °F70 %29.66 in9.0 miWest (270°)15.0 mph33.4 mph0.00 inSnowLight Snow
4:54 AM33.1 °F23.0 °F66 %29.70 in8.0 miWest (260°)17.3 mph27.6 mph0.00 inSnowLight Snow
5:06 AM32.0 °F24.8 °F75 %29.70 in4.0 miWNW (290°)16.1 mph31.1 mph0.00 inSnowLight Snow
5:54 AM30.9 °F25.0 °F79 %29.73 in4.0 miWNW (290°)10.4 mph20.7 mph0.00 inSnowLight Snow
6:54 AM32.0 °F23.0 °F69 %29.76 in8.0 miWNW (290°)11.5 mph19.6 mph0.00 inSnowLight Snow
7:37 AM32.0 °F19.4 °F60 %29.77 in10.0 miWest (270°)17.3 mph25.3 mph0.00 inSnowLight Snow
7:54 AM30.9 °F21.0 °F67 %29.80 in6.0 miWest (280°)15.0 mph24.2 mph0.00 inSnowLight Snow
8:54 AM30.0 °F18.0 °F61 %29.83 in10.0 miWest (280°)16.1 mph31.1 mph0.00 inSnowLight Snow
9:54 AM30.0 °F19.0 °F64 %29.88 in4.0 miWest (270°)13.8 mph20.7 mph0.00 inSnowLight Snow
10:02 AM28.4 °F19.4 °F69 %29.87 in2.5 miWest (270°)17.3 mph25.3 mph0.00 inSnowLight Snow
10:27 AM28.4 °F21.2 °F74 %29.88 in6.0 miWSW (250°)15.0 mph24.2 mph0.00 inSnowLight Snow
10:54 AM30.0 °F21.0 °F69 %29.90 in9.0 miWSW (240°)18.4 mph27.6 mph0.00 inMostly Cloudy
11:40 AM28.4 °F23.0 °F80 %29.89 in0.5 miWest (260°)13.8 mph25.3 mph0.00 inSnowSnow
11:54 AM28.9 °F24.1 °F82 %29.91 in3.0 miWSW (250°)8.1 mph19.6 mph0.01 inSnowLight Snow
12:54 PM32.0 °F19.0 °F59 %29.89 in9.0 miWSW (240°)20.7 mph33.4 mph0.00 inOvercast
1:32 PM30.2 °F19.4 °F64 %29.89 in10.0 miWest (260°)21.9 mph33.4 mph0.00 inSnowLight Snow
1:54 PM32.0 °F21.0 °F64 %29.91 in9.0 miWest (260°)8.1 mph18.4 mph0.00 inSnowLight Snow
2:20 PM32.0 °F17.6 °F55 %29.89 in9.0 miWest (280°)11.5 mph27.6 mph0.00 inSnowLight Snow
2:54 PM30.0 °F19.0 °F64 %29.93 in4.0 miWest (280°)10.4 mph21.9 mph0.00 inSnowLight Snow
3:54 PM30.9 °F21.0 °F67 %29.94 in10.0 miWest (260°)16.1 mph27.6 mph0.00 inMostly Cloudy
4:25 PM28.4 °F21.2 °F74 %29.93 in1.0 miWSW (250°)18.4 mph29.9 mph0.00 inSnowLight Snow
4:36 PM28.4 °F23.0 °F80 %29.93 in5.0 miWest (260°)6.9 mph0.00 inSnowLight Snow
4:54 PM30.0 °F21.9 °F72 %29.95 in9.0 miWSW (240°)9.2 mph0.00 inSnowLight Snow
5:54 PM30.0 °F21.0 °F69 %29.96 in9.0 miWest (270°)4.6 mph0.00 inSnowLight Snow
6:54 PM30.0 °F19.9 °F66 %29.95 in10.0 miWSW (240°)6.9 mph0.00 inMostly Cloudy
7:54 PM30.0 °F21.0 °F69 %29.95 in10.0 miSSW (210°)6.9 mphOvercast
8:54 PM30.9 °F19.9 °F64 %29.94 in9.0 miSW (220°)8.1 mph0.00 inSnowLight Snow
9:54 PM30.9 °F21.9 °F69 %29.93 in7.0 miSW (220°)10.4 mph17.3 mph0.00 inSnowLight Snow
10:38 PM30.2 °F24.8 °F80 %29.89 in4.0 miSW (230°)4.6 mph0.00 inSnowLight Snow
10:54 PM30.0 °F25.0 °F82 %29.90 in4.0 miSW (220°)4.6 mph0.00 inSnowLight Snow
11:54 PM28.9 °F26.1 °F89 %29.88 in4.0 miSSW (210°)6.9 mph0.01 inSnowLight Snow
Hourly data recorded from KCRW, located miles away from Clendenin, West Virginia







STORIES FROM OUR PARTNERS